Time,TemperatureF,DewpointF,PressureIn,WindDirection,WindDirectionDegrees,WindSpeedMPH,WindSpeedGustMPH,Humidity,HourlyPrecipIn,Conditions,Clouds,dailyrainin,SoftwareType,DateUTC
2013-02-10 00:01:00,30.7,27.4,29.88,SSE,157,3.6,6.9,87,0.00,,,0.00,WUHU21623XXSP,2013-02-10 06:01:00,
2013-02-10 00:06:00,30.7,27.4,29.88,SSE,157,6.3,8.1,87,0.00,,,0.00,WUHU21623XXSP,2013-02-10 06:06:00,
2013-02-10 00:11:00,30.6,27.2,29.87,SSE,164,4.2,8.1,87,0.00,,,0.00,WUHU21623XXSP,2013-02-10 06:11:00,
2013-02-10 00:16:00,30.6,27.2,29.88,SSE,150,2.9,7.8,87,0.00,,,0.00,WUHU21623XXSP,2013-02-10 06:16:00,
2013-02-10 00:21:00,30.6,27.2,29.87,SSE,157,5.4,8.1,87,0.00,,,0.00,WUHU21623XXSP,2013-02-10 06:21:00,
2013-02-10 00:26:00,30.6,27.2,29.88,SE,135,5.8,8.1,87,0.00,,,0.00,WUHU21623XXSP,2013-02-10 06:26:00,
2013-02-10 00:31:00,30.4,27.0,29.88,SE,135,4.5,6.3,87,0.00,,,0.00,WUHU21623XXSP,2013-02-10 06:31:00,
2013-02-10 00:36:00,30.4,26.7,29.87,South,187,5.8,8.3,86,0.00,,,0.00,WUHU21623XXSP,2013-02-10 06:36:00,
2013-02-10 00:41:00,30.4,26.7,29.88,South,180,8.1,8.3,86,0.00,,,0.00,WUHU21623XXSP,2013-02-10 06:41:00,
2013-02-10 00:46:00,30.2,26.5,29.88,South,175,4.4,10.1,86,0.00,,,0.00,WUHU21623XXSP,2013-02-10 06:46:00,
2013-02-10 00:51:00,30.2,26.5,29.88,SSE,160,6.3,10.3,86,0.00,,,0.00,WUHU21623XXSP,2013-02-10 06:51:00,
2013-02-10 00:56:00,30.2,26.5,29.88,SSE,161,3.8,10.3,86,0.00,,,0.00,WUHU21623XXSP,2013-02-10 06:56:00,
2013-02-10 01:01:00,30.2,26.5,29.88,SE,135,6.0,8.3,86,0.00,,,0.00,WUHU21623XXSP,2013-02-10 07:01:00,
2013-02-10 01:06:00,30.0,26.3,29.88,South,180,4.5,8.3,86,0.00,,,0.00,WUHU21623XXSP,2013-02-10 07:06:00,
2013-02-10 01:11:00,30.0,26.3,29.88,SE,135,4.5,7.4,86,0.00,,,0.00,WUHU21623XXSP,2013-02-10 07:11:00,
2013-02-10 01:16:00,30.0,26.1,29.88,SSE,160,3.6,8.5,85,0.00,,,0.00,WUHU21623XXSP,2013-02-10 07:16:00,
2013-02-10 01:21:00,30.0,26.1,29.87,SE,144,4.3,8.5,85,0.00,,,0.00,WUHU21623XXSP,2013-02-10 07:21:00,
2013-02-10 01:26:00,30.0,26.1,29.87,SE,141,3.0,6.3,85,0.00,,,0.00,WUHU21623XXSP,2013-02-10 07:26:00,
2013-02-10 01:31:00,30.0,26.1,29.87,SSE,157,3.8,6.3,85,0.00,,,0.00,WUHU21623XXSP,2013-02-10 07:31:00,
2013-02-10 01:36:00,30.0,26.1,29.87,South,180,4.3,6.7,85,0.00,,,0.00,WUHU21623XXSP,2013-02-10 07:36:00,
2013-02-10 01:41:00,30.0,26.1,29.87,SSE,157,8.5,8.5,85,0.00,,,0.00,WUHU21623XXSP,2013-02-10 07:41:00,
2013-02-10 01:46:00,30.0,26.1,29.87,ESE,112,6.3,8.5,85,0.00,,,0.00,WUHU21623XXSP,2013-02-10 07:46:00,
2013-02-10 01:51:00,30.0,26.1,29.87,SE,141,3.7,6.5,85,0.00,,,0.00,WUHU21623XXSP,2013-02-10 07:51:00,
2013-02-10 01:56:00,30.0,26.1,29.86,SSE,149,2.5,6.5,85,0.00,,,0.00,WUHU21623XXSP,2013-02-10 07:56:00,
2013-02-10 02:01:00,30.0,26.1,29.86,ESE,119,2.9,4.0,85,0.00,,,0.00,WUHU21623XXSP,2013-02-10 08:01:00,
2013-02-10 02:06:00,30.0,26.1,29.85,SE,125,2.1,4.0,85,0.00,,,0.00,WUHU21623XXSP,2013-02-10 08:06:00,
2013-02-10 02:11:00,30.0,26.1,29.85,SSE,157,3.1,4.5,85,0.00,,,0.00,WUHU21623XXSP,2013-02-10 08:11:00,
2013-02-10 02:16:00,30.0,26.1,29.85,SE,135,2.5,4.5,85,0.00,,,0.00,WUHU21623XXSP,2013-02-10 08:16:00,
2013-02-10 02:21:00,30.0,26.1,29.85,ESE,102,2.7,4.3,85,0.00,,,0.00,WUHU21623XXSP,2013-02-10 08:21:00,
2013-02-10 02:26:00,30.0,26.1,29.85,SE,135,3.4,4.3,85,0.00,,,0.00,WUHU21623XXSP,2013-02-10 08:26:00,
2013-02-10 02:31:00,30.0,26.1,29.85,SE,134,1.2,4.7,85,0.00,,,0.00,WUHU21623XXSP,2013-02-10 08:31:00,
2013-02-10 02:36:00,30.0,26.1,29.85,ESE,120,3.5,5.6,85,0.00,,,0.00,WUHU21623XXSP,2013-02-10 08:36:00,
2013-02-10 02:41:00,30.0,26.1,29.84,ESE,108,1.7,5.6,85,0.00,,,0.00,WUHU21623XXSP,2013-02-10 08:41:00,
2013-02-10 02:46:00,30.0,26.1,29.83,East,82,2.5,5.4,85,0.00,,,0.00,WUHU21623XXSP,2013-02-10 08:46:00,
2013-02-10 02:51:00,29.8,25.9,29.83,ENE,70,1.9,5.4,85,0.00,,,0.00,WUHU21623XXSP,2013-02-10 08:51:00,
2013-02-10 02:56:00,29.8,25.9,29.83,ESE,108,2.5,6.9,85,0.00,,,0.00,WUHU21623XXSP,2013-02-10 08:56:00,
2013-02-10 03:01:00,29.8,25.9,29.82,ESE,119,2.1,6.9,85,0.00,,,0.00,WUHU21623XXSP,2013-02-10 09:01:00,
2013-02-10 03:06:00,29.8,25.9,29.82,ESE,121,2.0,6.9,85,0.00,,,0.00,WUHU21623XXSP,2013-02-10 09:06:00,
2013-02-10 03:11:00,29.8,25.9,29.82,SE,130,2.7,5.1,85,0.00,,,0.00,WUHU21623XXSP,2013-02-10 09:11:00,
2013-02-10 03:16:00,29.8,25.9,29.81,SE,131,2.8,4.5,85,0.00,,,0.00,WUHU21623XXSP,2013-02-10 09:16:00,
2013-02-10 03:21:00,29.8,25.9,29.81,ESE,105,3.0,4.7,85,0.00,,,0.00,WUHU21623XXSP,2013-02-10 09:21:00,
2013-02-10 03:26:00,29.8,25.9,29.80,ENE,67,4.7,4.7,85,0.00,,,0.00,WUHU21623XXSP,2013-02-10 09:26:00,
2013-02-10 03:31:00,29.8,25.9,29.80,East,94,2.3,8.9,85,0.00,,,0.00,WUHU21623XXSP,2013-02-10 09:31:00,
2013-02-10 03:36:00,29.8,25.9,29.79,SE,135,4.0,8.9,85,0.00,,,0.00,WUHU21623XXSP,2013-02-10 09:36:00,
2013-02-10 03:41:00,29.8,25.9,29.79,SE,135,5.1,5.6,85,0.00,,,0.00,WUHU21623XXSP,2013-02-10 09:41:00,
2013-02-10 03:46:00,29.7,25.7,29.78,SE,135,6.7,7.4,85,0.00,,,0.00,WUHU21623XXSP,2013-02-10 09:46:00,
2013-02-10 03:51:00,29.7,25.7,29.78,SE,126,3.5,7.4,85,0.00,,,0.00,WUHU21623XXSP,2013-02-10 09:51:00,
2013-02-10 03:56:00,29.7,25.7,29.79,SE,140,4.7,6.7,85,0.00,,,0.00,WUHU21623XXSP,2013-02-10 09:56:00,
2013-02-10 04:01:00,29.7,25.7,29.79,East,90,3.6,6.7,85,0.00,,,0.00,WUHU21623XXSP,2013-02-10 10:01:00,
2013-02-10 04:06:00,29.7,25.7,29.78,SE,135,3.8,5.8,85,0.00,,,0.00,WUHU21623XXSP,2013-02-10 10:06:00,
2013-02-10 04:11:00,29.7,25.7,29.78,East,98,4.1,12.8,85,0.00,,,0.00,WUHU21623XXSP,2013-02-10 10:11:00,
2013-02-10 04:16:00,29.7,25.7,29.78,SE,135,3.6,12.8,85,0.00,,,0.00,WUHU21623XXSP,2013-02-10 10:16:00,
2013-02-10 04:21:00,29.7,25.7,29.77,ESE,123,3.0,6.5,85,0.00,,,0.00,WUHU21623XXSP,2013-02-10 10:21:00,
2013-02-10 04:26:00,29.7,25.7,29.77,East,90,3.6,6.5,85,0.00,,,0.00,WUHU21623XXSP,2013-02-10 10:26:00,
2013-02-10 04:31:00,29.7,25.7,29.78,ESE,116,3.6,5.8,85,0.00,,,0.00,WUHU21623XXSP,2013-02-10 10:31:00,
2013-02-10 04:36:00,29.7,25.7,29.77,ESE,106,2.8,5.8,85,0.00,,,0.00,WUHU21623XXSP,2013-02-10 10:36:00,
2013-02-10 04:41:00,29.7,25.7,29.78,SSE,157,4.0,5.8,85,0.00,,,0.00,WUHU21623XXSP,2013-02-10 10:41:00,
2013-02-10 04:46:00,29.7,25.7,29.77,SE,127,1.9,4.0,85,0.00,,,0.00,WUHU21623XXSP,2013-02-10 10:46:00,
2013-02-10 04:51:00,29.7,25.7,29.77,East,92,3.4,6.7,85,0.00,,,0.00,WUHU21623XXSP,2013-02-10 10:51:00,
2013-02-10 04:56:00,29.5,25.5,29.76,East,98,1.9,8.7,85,0.00,,,0.00,WUHU21623XXSP,2013-02-10 10:56:00,
2013-02-10 05:01:00,29.5,25.5,29.75,ENE,67,5.4,8.7,85,0.00,,,0.00,WUHU21623XXSP,2013-02-10 11:01:00,
2013-02-10 05:06:00,29.3,25.3,29.75,East,91,3.1,6.9,85,0.00,,,0.00,WUHU21623XXSP,2013-02-10 11:06:00,
2013-02-10 05:11:00,29.3,25.3,29.74,East,95,2.8,8.9,85,0.00,,,0.00,WUHU21623XXSP,2013-02-10 11:11:00,
2013-02-10 05:16:00,29.1,25.4,29.74,East,81,3.3,8.9,86,0.00,,,0.00,WUHU21623XXSP,2013-02-10 11:16:00,
2013-02-10 05:21:00,29.1,25.4,29.74,East,100,2.8,7.8,86,0.00,,,0.00,WUHU21623XXSP,2013-02-10 11:21:00,
2013-02-10 05:26:00,29.1,25.4,29.73,ENE,67,7.6,9.8,86,0.00,,,0.00,WUHU21623XXSP,2013-02-10 11:26:00,
2013-02-10 05:31:00,29.1,25.4,29.73,ENE,68,4.0,9.8,86,0.00,,,0.00,WUHU21623XXSP,2013-02-10 11:31:00,
2013-02-10 05:36:00,28.9,25.3,29.72,ESE,108,3.6,9.4,86,0.00,,,0.00,WUHU21623XXSP,2013-02-10 11:36:00,
2013-02-10 05:41:00,28.9,25.3,29.71,East,86,3.7,8.9,86,0.00,,,0.00,WUHU21623XXSP,2013-02-10 11:41:00,
2013-02-10 05:46:00,28.9,25.3,29.71,ENE,60,7.9,13.9,86,0.00,,,0.00,WUHU21623XXSP,2013-02-10 11:46:00,
2013-02-10 05:51:00,28.9,25.6,29.70,East,101,2.7,13.9,87,0.00,,,0.00,WUHU21623XXSP,2013-02-10 11:51:00,
2013-02-10 05:56:00,28.9,25.6,29.70,East,90,12.8,13.6,87,0.00,,,0.00,WUHU21623XXSP,2013-02-10 11:56:00,
2013-02-10 06:01:00,28.8,25.4,29.69,ENE,76,4.7,13.6,87,0.00,,,0.00,WUHU21623XXSP,2013-02-10 12:01:00,
2013-02-10 06:06:00,28.8,25.4,29.69,East,90,9.2,11.2,87,0.00,,,0.00,WUHU21623XXSP,2013-02-10 12:06:00,
2013-02-10 06:11:00,28.8,25.4,29.70,ENE,67,5.8,11.2,87,0.00,,,0.00,WUHU21623XXSP,2013-02-10 12:11:00,
2013-02-10 06:16:00,28.8,25.4,29.69,East,101,3.1,9.2,87,0.00,,,0.00,WUHU21623XXSP,2013-02-10 12:16:00,
2013-02-10 06:21:00,28.8,25.4,29.69,ESE,116,3.8,8.3,87,0.00,,,0.00,WUHU21623XXSP,2013-02-10 12:21:00,
2013-02-10 06:26:00,28.8,25.4,29.68,East,84,4.5,8.3,87,0.00,,,0.00,WUHU21623XXSP,2013-02-10 12:26:00,
2013-02-10 06:31:00,28.8,25.4,29.68,East,88,4.0,8.3,87,0.00,,,0.00,WUHU21623XXSP,2013-02-10 12:31:00,
2013-02-10 06:36:00,28.8,25.4,29.67,East,82,6.2,13.0,87,0.00,,,0.00,WUHU21623XXSP,2013-02-10 12:36:00,
2013-02-10 06:41:00,28.8,25.4,29.66,ENE,67,6.5,13.0,87,0.00,,,0.00,WUHU21623XXSP,2013-02-10 12:41:00,
2013-02-10 06:46:00,28.8,25.4,29.67,ENE,70,1.8,13.0,87,0.00,,,0.00,WUHU21623XXSP,2013-02-10 12:46:00,
2013-02-10 06:51:00,28.8,25.4,29.67,ESE,114,4.0,13.0,87,0.00,,,0.00,WUHU21623XXSP,2013-02-10 12:51:00,
2013-02-10 06:56:00,28.8,25.4,29.67,ESE,112,6.7,11.6,87,0.00,,,0.00,WUHU21623XXSP,2013-02-10 12:56:00,
2013-02-10 07:01:00,28.8,25.4,29.67,NE,45,6.3,11.6,87,0.00,,,0.00,WUHU21623XXSP,2013-02-10 13:01:00,
2013-02-10 07:06:00,28.8,25.4,29.67,East,84,3.3,7.6,87,0.00,,,0.00,WUHU21623XXSP,2013-02-10 13:06:00,
2013-02-10 07:11:00,28.8,25.1,29.66,ENE,77,2.7,7.6,86,0.00,,,0.00,WUHU21623XXSP,2013-02-10 13:11:00,
2013-02-10 07:16:00,28.8,25.1,29.67,SE,135,2.5,7.6,86,0.00,,,0.00,WUHU21623XXSP,2013-02-10 13:16:00,
2013-02-10 07:21:00,28.8,25.1,29.65,ESE,112,6.3,7.4,86,0.00,,,0.00,WUHU21623XXSP,2013-02-10 13:21:00,
2013-02-10 07:26:00,28.9,25.3,29.64,ENE,64,4.6,11.9,86,0.00,,,0.00,WUHU21623XXSP,2013-02-10 13:26:00,
2013-02-10 07:31:00,28.9,25.3,29.62,East,80,7.3,11.9,86,0.00,,,0.00,WUHU21623XXSP,2013-02-10 13:31:00,
2013-02-10 07:36:00,28.9,25.3,29.61,ENE,78,4.9,11.9,86,0.00,,,0.00,WUHU21623XXSP,2013-02-10 13:36:00,
2013-02-10 07:41:00,28.9,25.3,29.61,ENE,77,4.7,11.4,86,0.00,,,0.00,WUHU21623XXSP,2013-02-10 13:41:00,
2013-02-10 07:46:00,28.9,25.3,29.61,ENE,67,7.2,11.4,86,0.00,,,0.00,WUHU21623XXSP,2013-02-10 13:46:00,
2013-02-10 07:51:00,28.9,25.3,29.60,ENE,72,7.0,11.9,86,0.00,,,0.00,WUHU21623XXSP,2013-02-10 13:51:00,
2013-02-10 07:56:00,28.9,25.3,29.59,ENE,61,5.5,24.4,86,0.00,,,0.00,WUHU21623XXSP,2013-02-10 13:56:00,
2013-02-10 08:01:00,28.9,25.3,29.59,ENE,67,6.9,24.4,86,0.00,,,0.00,WUHU21623XXSP,2013-02-10 14:01:00,
2013-02-10 08:06:00,28.9,25.3,29.60,East,90,9.2,13.6,86,0.00,,,0.00,WUHU21623XXSP,2013-02-10 14:06:00,
2013-02-10 08:11:00,28.9,25.3,29.61,ENE,67,3.6,11.2,86,0.00,,,0.00,WUHU21623XXSP,2013-02-10 14:11:00,
2013-02-10 08:16:00,28.9,25.3,29.61,East,90,8.1,8.9,86,0.00,,,0.00,WUHU21623XXSP,2013-02-10 14:16:00,
2013-02-10 08:21:00,29.1,25.7,29.61,ENE,67,4.3,8.5,87,0.00,,,0.00,WUHU21623XXSP,2013-02-10 14:21:00,
2013-02-10 08:26:00,29.1,25.7,29.61,East,90,3.6,6.3,87,0.00,,,0.00,WUHU21623XXSP,2013-02-10 14:26:00,
2013-02-10 08:31:00,29.1,25.7,29.60,East,94,3.7,6.7,87,0.00,,,0.00,WUHU21623XXSP,2013-02-10 14:31:00,
2013-02-10 08:36:00,29.1,25.7,29.59,ESE,110,4.8,9.2,87,0.00,,,0.00,WUHU21623XXSP,2013-02-10 14:36:00,
2013-02-10 08:41:00,29.1,25.7,29.59,NNE,22,7.2,10.5,87,0.00,,,0.00,WUHU21623XXSP,2013-02-10 14:41:00,
2013-02-10 08:46:00,29.1,25.7,29.58,ENE,73,6.6,15.0,87,0.00,,,0.00,WUHU21623XXSP,2013-02-10 14:46:00,
2013-02-10 08:51:00,29.1,25.7,29.58,ENE,73,7.6,25.1,87,0.00,,,0.00,WUHU21623XXSP,2013-02-10 14:51:00,
2013-02-10 08:56:00,29.1,25.7,29.57,ENE,73,6.8,25.1,87,0.00,,,0.00,WUHU21623XXSP,2013-02-10 14:56:00,
2013-02-10 09:01:00,29.3,25.9,29.58,ENE,72,4.2,12.1,87,0.00,,,0.00,WUHU21623XXSP,2013-02-10 15:01:00,
2013-02-10 09:06:00,29.3,25.9,29.58,NE,45,9.2,9.4,87,0.00,,,0.00,WUHU21623XXSP,2013-02-10 15:06:00,
2013-02-10 09:11:00,29.3,25.9,29.57,East,84,6.8,13.0,87,0.00,,,0.00,WUHU21623XXSP,2013-02-10 15:11:00,
2013-02-10 09:16:00,29.3,25.9,29.56,NNE,22,5.8,13.0,87,0.00,,,0.00,WUHU21623XXSP,2013-02-10 15:16:00,
2013-02-10 09:21:00,29.5,26.1,29.56,ENE,72,6.7,9.4,87,0.00,,,0.00,WUHU21623XXSP,2013-02-10 15:21:00,
2013-02-10 09:26:00,29.5,26.1,29.54,ENE,78,5.0,9.4,87,0.00,,,0.00,WUHU21623XXSP,2013-02-10 15:26:00,
2013-02-10 09:31:00,29.7,26.3,29.54,East,87,5.6,10.1,87,0.00,,,0.00,WUHU21623XXSP,2013-02-10 15:31:00,
2013-02-10 09:36:00,29.7,26.3,29.54,East,92,5.9,11.6,87,0.00,,,0.00,WUHU21623XXSP,2013-02-10 15:36:00,
2013-02-10 09:41:00,29.8,26.5,29.54,ESE,116,4.5,11.6,87,0.00,,,0.00,WUHU21623XXSP,2013-02-10 15:41:00,
2013-02-10 09:46:00,29.7,26.3,29.55,ESE,105,3.1,10.7,87,0.00,,,0.00,WUHU21623XXSP,2013-02-10 15:46:00,
2013-02-10 09:52:00,29.8,26.7,29.55,ESE,112,8.5,10.7,88,0.00,,,0.00,WUHU21623XXSP,2013-02-10 15:52:00,
2013-02-10 09:57:00,29.8,26.5,29.54,ENE,68,3.5,9.4,87,0.00,,,0.00,WUHU21623XXSP,2013-02-10 15:57:00,
2013-02-10 10:02:00,29.7,26.3,29.53,East,81,4.9,8.5,87,0.00,,,0.00,WUHU21623XXSP,2013-02-10 16:02:00,
2013-02-10 10:07:00,29.7,26.3,29.52,East,90,4.0,8.5,87,0.00,,,0.00,WUHU21623XXSP,2013-02-10 16:07:00,
2013-02-10 10:12:00,29.8,26.7,29.51,ENE,71,5.2,10.3,88,0.00,,,0.00,WUHU21623XXSP,2013-02-10 16:12:00,
2013-02-10 10:17:00,29.8,26.5,29.51,ENE,78,6.5,11.4,87,0.00,,,0.00,WUHU21623XXSP,2013-02-10 16:17:00,
2013-02-10 10:22:00,29.8,26.7,29.51,NE,56,6.4,12.1,88,0.00,,,0.00,WUHU21623XXSP,2013-02-10 16:22:00,
2013-02-10 10:27:00,29.8,26.7,29.51,ENE,67,6.9,12.1,88,0.00,,,0.00,WUHU21623XXSP,2013-02-10 16:27:00,
2013-02-10 10:32:00,29.8,26.7,29.51,East,88,5.7,9.2,88,0.00,,,0.00,WUHU21623XXSP,2013-02-10 16:32:00,
2013-02-10 10:37:00,29.8,26.7,29.52,East,95,4.0,9.2,88,0.00,,,0.00,WUHU21623XXSP,2013-02-10 16:37:00,
2013-02-10 10:42:00,29.8,26.7,29.52,ENE,67,2.0,7.8,88,0.00,,,0.00,WUHU21623XXSP,2013-02-10 16:42:00,
2013-02-10 10:47:00,29.8,26.7,29.51,NNE,22,6.3,7.2,88,0.00,,,0.00,WUHU21623XXSP,2013-02-10 16:47:00,
2013-02-10 10:52:00,30.0,26.9,29.48,NE,45,5.8,9.4,88,0.00,,,0.00,WUHU21623XXSP,2013-02-10 16:52:00,
2013-02-10 10:57:00,30.0,26.9,29.46,ENE,67,5.8,9.4,88,0.00,,,0.00,WUHU21623XXSP,2013-02-10 16:57:00,
2013-02-10 11:02:00,30.0,26.9,29.46,North,0,4.9,9.4,88,0.00,,,0.00,WUHU21623XXSP,2013-02-10 17:02:00,
2013-02-10 11:07:00,30.0,26.9,29.45,NE,48,4.8,9.4,88,0.00,,,0.00,WUHU21623XXSP,2013-02-10 17:07:00,
2013-02-10 11:12:00,30.0,26.9,29.44,ENE,59,3.5,9.8,88,0.00,,,0.00,WUHU21623XXSP,2013-02-10 17:12:00,
2013-02-10 11:17:00,30.0,26.9,29.45,NE,36,4.9,10.1,88,0.00,,,0.00,WUHU21623XXSP,2013-02-10 17:17:00,
2013-02-10 11:22:00,30.0,26.9,29.45,ENE,57,3.8,10.1,88,0.00,,,0.00,WUHU21623XXSP,2013-02-10 17:22:00,
2013-02-10 11:27:00,30.0,26.9,29.46,East,90,2.9,8.7,88,0.00,,,0.00,WUHU21623XXSP,2013-02-10 17:27:00,
2013-02-10 11:32:00,30.0,26.9,29.47,ENE,76,1.9,5.1,88,0.00,,,0.00,WUHU21623XXSP,2013-02-10 17:32:00,
2013-02-10 11:37:00,30.0,26.9,29.45,East,90,9.6,9.6,88,0.00,,,0.00,WUHU21623XXSP,2013-02-10 17:37:00,
2013-02-10 11:42:00,30.0,26.9,29.44,ENE,61,3.6,9.6,88,0.00,,,0.00,WUHU21623XXSP,2013-02-10 17:42:00,
2013-02-10 11:47:00,30.0,26.9,29.44,ENE,68,3.4,5.8,88,0.00,,,0.00,WUHU21623XXSP,2013-02-10 17:47:00,
2013-02-10 11:52:00,30.0,26.9,29.44,ENE,62,5.3,9.2,88,0.00,,,0.00,WUHU21623XXSP,2013-02-10 17:52:00,
2013-02-10 11:57:00,30.0,26.9,29.43,NE,47,2.8,9.2,88,0.00,,,0.00,WUHU21623XXSP,2013-02-10 17:57:00,
2013-02-10 12:02:00,30.2,27.1,29.43,ENE,67,4.3,6.5,88,0.00,,,0.00,WUHU21623XXSP,2013-02-10 18:02:00,
2013-02-10 12:07:00,30.4,27.3,29.42,East,82,4.6,6.3,88,0.00,,,0.00,WUHU21623XXSP,2013-02-10 18:07:00,
2013-02-10 12:12:00,30.4,27.3,29.42,ENE,67,4.7,6.3,88,0.00,,,0.00,WUHU21623XXSP,2013-02-10 18:12:00,
2013-02-10 12:17:00,30.4,27.3,29.43,ENE,64,3.2,6.0,88,0.00,,,0.00,WUHU21623XXSP,2013-02-10 18:17:00,
2013-02-10 12:22:00,30.6,27.8,29.41,NNE,22,3.8,8.9,89,0.00,,,0.00,WUHU21623XXSP,2013-02-10 18:22:00,
2013-02-10 12:27:00,30.7,27.9,29.42,NE,54,3.7,8.9,89,0.00,,,0.00,WUHU21623XXSP,2013-02-10 18:27:00,
2013-02-10 12:32:00,30.7,27.9,29.41,NE,44,3.2,7.4,89,0.00,,,0.00,WUHU21623XXSP,2013-02-10 18:32:00,
2013-02-10 12:37:00,30.7,27.9,29.40,NE,56,3.6,6.9,89,0.00,,,0.00,WUHU21623XXSP,2013-02-10 18:37:00,
2013-02-10 12:43:00,30.7,27.9,29.40,SE,135,2.9,6.0,89,0.00,,,0.00,WUHU21623XXSP,2013-02-10 18:43:00,
2013-02-10 12:47:00,30.9,28.1,29.39,ENE,73,3.3,6.0,89,0.00,,,0.00,WUHU21623XXSP,2013-02-10 18:47:00,
2013-02-10 12:53:00,30.9,28.1,29.39,NE,45,4.7,6.5,89,0.00,,,0.00,WUHU21623XXSP,2013-02-10 18:53:00,
2013-02-10 12:58:00,31.1,28.3,29.39,ENE,63,3.3,6.5,89,0.00,,,0.00,WUHU21623XXSP,2013-02-10 18:58:00,
2013-02-10 13:03:00,31.1,28.3,29.38,ENE,67,2.2,6.5,89,0.00,,,0.00,WUHU21623XXSP,2013-02-10 19:03:00,
2013-02-10 13:08:00,31.3,28.5,29.38,ENE,59,2.5,6.5,89,0.00,,,0.00,WUHU21623XXSP,2013-02-10 19:08:00,
2013-02-10 13:13:00,31.3,28.5,29.37,ENE,67,2.5,6.3,89,0.00,,,0.00,WUHU21623XXSP,2013-02-10 19:13:00,
2013-02-10 13:18:00,31.3,28.5,29.37,NNE,22,3.6,6.3,89,0.00,,,0.00,WUHU21623XXSP,2013-02-10 19:18:00,
2013-02-10 13:23:00,31.3,28.5,29.37,NE,47,3.7,8.1,89,0.00,,,0.00,WUHU21623XXSP,2013-02-10 19:23:00,
2013-02-10 13:28:00,31.3,28.5,29.36,NE,34,4.6,8.1,89,0.00,,,0.00,WUHU21623XXSP,2013-02-10 19:28:00,
2013-02-10 13:33:00,31.5,28.7,29.36,ENE,67,3.4,7.8,89,0.00,,,0.00,WUHU21623XXSP,2013-02-10 19:33:00,
2013-02-10 13:38:00,31.6,28.8,29.36,NE,41,2.1,6.5,89,0.00,,,0.00,WUHU21623XXSP,2013-02-10 19:38:00,
2013-02-10 13:43:00,31.8,29.0,29.36,ENE,67,2.9,5.4,89,0.00,,,0.00,WUHU21623XXSP,2013-02-10 19:43:00,
2013-02-10 13:48:00,32.2,29.4,29.36,NNE,22,1.6,5.4,89,0.00,,,0.00,WUHU21623XXSP,2013-02-10 19:48:00,
2013-02-10 13:53:00,32.2,29.4,29.34,East,90,3.1,6.0,89,0.00,,,0.00,WUHU21623XXSP,2013-02-10 19:53:00,
2013-02-10 13:58:00,32.5,29.7,29.34,NE,45,3.8,6.0,89,0.00,,,0.00,WUHU21623XXSP,2013-02-10 19:58:00,
2013-02-10 14:03:00,32.9,30.0,29.34,NE,50,1.5,5.1,89,0.00,,,0.00,WUHU21623XXSP,2013-02-10 20:03:00,
2013-02-10 14:08:00,33.1,30.2,29.33,ESE,112,4.0,6.7,89,0.00,,,0.00,WUHU21623XXSP,2013-02-10 20:08:00,
2013-02-10 14:13:00,33.1,30.2,29.33,East,81,2.1,6.9,89,0.00,,,0.00,WUHU21623XXSP,2013-02-10 20:13:00,
2013-02-10 14:18:00,33.3,30.3,29.33,ENE,67,2.6,6.9,89,0.00,,,0.00,WUHU21623XXSP,2013-02-10 20:18:00,
2013-02-10 14:23:00,33.3,30.3,29.33,ENE,69,3.6,7.6,89,0.00,,,0.00,WUHU21623XXSP,2013-02-10 20:23:00,
2013-02-10 14:28:00,33.3,30.3,29.33,ENE,67,4.7,7.6,89,0.00,,,0.00,WUHU21623XXSP,2013-02-10 20:28:00,
2013-02-10 14:33:00,33.3,30.3,29.33,ESE,112,6.3,6.9,89,0.00,,,0.00,WUHU21623XXSP,2013-02-10 20:33:00,
2013-02-10 14:38:00,33.3,30.3,29.33,ENE,58,3.8,8.1,89,0.00,,,0.00,WUHU21623XXSP,2013-02-10 20:38:00,
2013-02-10 14:43:00,33.3,30.3,29.32,East,79,4.2,8.5,89,0.00,,,0.00,WUHU21623XXSP,2013-02-10 20:43:00,
2013-02-10 14:48:00,33.4,30.5,29.32,East,100,2.6,8.5,89,0.00,,,0.00,WUHU21623XXSP,2013-02-10 20:48:00,
2013-02-10 14:53:00,33.4,30.3,29.32,East,90,11.2,11.2,89,0.00,,,0.00,WUHU21623XXSP,2013-02-10 20:53:00,
2013-02-10 14:58:00,33.4,30.5,29.31,ENE,75,4.1,11.2,89,0.00,,,0.00,WUHU21623XXSP,2013-02-10 20:58:00,
2013-02-10 15:03:00,33.4,30.5,29.31,ENE,67,2.2,8.1,89,0.00,,,0.00,WUHU21623XXSP,2013-02-10 21:03:00,
2013-02-10 15:08:00,33.4,30.5,29.31,ENE,67,3.1,8.5,89,0.00,,,0.00,WUHU21623XXSP,2013-02-10 21:08:00,
2013-02-10 15:13:00,33.4,30.5,29.30,ENE,69,4.9,9.2,89,0.00,,,0.00,WUHU21623XXSP,2013-02-10 21:13:00,
2013-02-10 15:18:00,33.4,30.5,29.31,NE,55,5.2,9.2,89,0.00,,,0.00,WUHU21623XXSP,2013-02-10 21:18:00,
2013-02-10 15:23:00,33.4,30.5,29.30,ENE,78,3.4,8.7,89,0.00,,,0.00,WUHU21623XXSP,2013-02-10 21:23:00,
2013-02-10 15:28:00,33.4,30.5,29.30,ESE,104,1.8,6.5,89,0.00,,,0.00,WUHU21623XXSP,2013-02-10 21:28:00,
2013-02-10 15:33:00,33.4,30.5,29.30,NNE,22,4.3,6.5,89,0.00,,,0.00,WUHU21623XXSP,2013-02-10 21:33:00,
2013-02-10 15:39:00,33.4,30.5,29.30,ENE,76,2.8,6.3,89,0.00,,,0.00,WUHU21623XXSP,2013-02-10 21:39:00,
2013-02-10 15:44:00,33.4,30.5,29.30,NNE,22,6.3,6.3,89,0.00,,,0.00,WUHU21623XXSP,2013-02-10 21:44:00,
2013-02-10 15:49:00,33.4,30.5,29.30,ENE,62,3.0,6.3,89,0.00,,,0.00,WUHU21623XXSP,2013-02-10 21:49:00,
2013-02-10 15:54:00,33.4,30.5,29.30,ENE,67,3.7,8.7,89,0.00,,,0.00,WUHU21623XXSP,2013-02-10 21:54:00,
2013-02-10 15:59:00,33.6,30.6,29.29,ENE,67,1.2,8.7,89,0.00,,,0.00,WUHU21623XXSP,2013-02-10 21:59:00,
2013-02-10 16:04:00,33.4,30.5,29.29,ENE,62,3.9,9.2,89,0.00,,,0.00,WUHU21623XXSP,2013-02-10 22:04:00,
2013-02-10 16:09:00,33.6,30.6,29.29,ENE,67,4.9,9.2,89,0.00,,,0.00,WUHU21623XXSP,2013-02-10 22:09:00,
2013-02-10 16:14:00,33.6,30.6,29.29,ENE,63,3.6,5.8,89,0.00,,,0.00,WUHU21623XXSP,2013-02-10 22:14:00,
2013-02-10 16:19:00,33.6,30.6,29.29,ENE,67,2.6,5.8,89,0.00,,,0.00,WUHU21623XXSP,2013-02-10 22:19:00,
2013-02-10 16:24:00,33.6,30.6,29.29,ENE,74,3.0,6.0,89,0.00,,,0.00,WUHU21623XXSP,2013-02-10 22:24:00,
2013-02-10 16:29:00,33.6,30.6,29.28,ENE,59,2.7,6.0,89,0.00,,,0.00,WUHU21623XXSP,2013-02-10 22:29:00,
2013-02-10 16:34:00,33.6,30.6,29.29,ENE,67,2.8,5.8,89,0.00,,,0.00,WUHU21623XXSP,2013-02-10 22:34:00,
2013-02-10 16:39:00,33.6,30.6,29.29,ENE,67,2.8,6.3,89,0.00,,,0.00,WUHU21623XXSP,2013-02-10 22:39:00,
2013-02-10 16:44:00,33.4,30.5,29.28,ENE,67,3.2,6.5,89,0.00,,,0.00,WUHU21623XXSP,2013-02-10 22:44:00,
2013-02-10 16:49:00,33.6,30.6,29.28,ENE,67,2.0,6.5,89,0.00,,,0.00,WUHU21623XXSP,2013-02-10 22:49:00,
2013-02-10 16:54:00,33.6,30.6,29.28,ENE,67,1.7,4.9,89,0.00,,,0.00,WUHU21623XXSP,2013-02-10 22:54:00,
2013-02-10 16:59:00,33.4,30.5,29.28,ENE,67,1.8,4.9,89,0.00,,,0.00,WUHU21623XXSP,2013-02-10 22:59:00,
2013-02-10 17:04:00,33.4,30.5,29.28,ENE,67,2.5,4.3,89,0.00,,,0.00,WUHU21623XXSP,2013-02-10 23:04:00,
2013-02-10 17:09:00,33.4,30.5,29.28,ENE,67,1.8,6.3,89,0.00,,,0.00,WUHU21623XXSP,2013-02-10 23:09:00,
2013-02-10 17:14:00,33.4,30.5,29.28,ENE,67,3.4,6.3,89,0.00,,,0.00,WUHU21623XXSP,2013-02-10 23:14:00,
2013-02-10 17:19:00,33.4,30.5,29.28,ENE,67,1.9,5.1,89,0.00,,,0.00,WUHU21623XXSP,2013-02-10 23:19:00,
2013-02-10 17:24:00,33.4,30.5,29.28,ENE,67,3.0,4.5,89,0.00,,,0.00,WUHU21623XXSP,2013-02-10 23:24:00,
2013-02-10 17:29:00,33.4,30.5,29.28,ENE,67,3.1,6.3,89,0.00,,,0.00,WUHU21623XXSP,2013-02-10 23:29:00,
2013-02-10 17:34:00,33.4,30.5,29.28,ENE,67,2.4,6.3,89,0.00,,,0.00,WUHU21623XXSP,2013-02-10 23:34:00,
2013-02-10 17:39:00,33.4,30.5,29.28,ENE,67,2.7,4.5,89,0.00,,,0.00,WUHU21623XXSP,2013-02-10 23:39:00,
2013-02-10 17:44:00,33.4,30.5,29.28,ENE,67,2.1,4.5,89,0.00,,,0.00,WUHU21623XXSP,2013-02-10 23:44:00,
2013-02-10 17:49:00,33.4,30.5,29.28,ENE,67,3.4,4.7,89,0.00,,,0.00,WUHU21623XXSP,2013-02-10 23:49:00,
2013-02-10 17:54:00,33.4,30.5,29.28,ENE,67,3.3,6.0,89,0.00,,,0.00,WUHU21623XXSP,2013-02-10 23:54:00,
2013-02-10 17:59:00,33.4,30.5,29.28,ENE,67,3.8,6.0,89,0.00,,,0.00,WUHU21623XXSP,2013-02-10 23:59:00,
2013-02-10 18:04:00,33.4,30.5,29.28,ENE,67,2.7,4.7,89,0.00,,,0.00,WUHU21623XXSP,2013-02-11 00:04:00,
2013-02-10 18:09:00,33.4,30.5,29.28,ENE,67,2.5,4.7,89,0.00,,,0.00,WUHU21623XXSP,2013-02-11 00:09:00,
2013-02-10 18:14:00,33.4,30.5,29.28,ENE,67,3.2,4.7,89,0.00,,,0.00,WUHU21623XXSP,2013-02-11 00:14:00,
2013-02-10 18:19:00,33.4,30.5,29.28,ENE,67,2.4,4.9,89,0.00,,,0.00,WUHU21623XXSP,2013-02-11 00:19:00,
2013-02-10 18:24:00,33.4,30.8,29.28,ENE,67,3.4,4.9,90,0.00,,,0.00,WUHU21623XXSP,2013-02-11 00:24:00,
2013-02-10 18:29:00,33.4,30.8,29.27,ENE,67,2.0,4.5,90,0.00,,,0.00,WUHU21623XXSP,2013-02-11 00:29:00,
2013-02-10 18:34:00,33.6,30.9,29.28,ENE,67,5.1,5.1,90,0.00,,,0.00,WUHU21623XXSP,2013-02-11 00:34:00,
2013-02-10 18:39:00,33.6,30.9,29.27,NNE,22,3.8,5.1,90,0.00,,,0.00,WUHU21623XXSP,2013-02-11 00:39:00,
2013-02-10 18:44:00,33.6,30.9,29.27,NE,47,2.0,4.9,90,0.00,,,0.00,WUHU21623XXSP,2013-02-11 00:44:00,
2013-02-10 18:49:00,33.6,30.9,29.27,NE,45,5.4,6.3,90,0.00,,,0.00,WUHU21623XXSP,2013-02-11 00:49:00,
2013-02-10 18:54:00,33.6,30.9,29.27,NNE,24,2.4,6.3,90,0.00,,,0.00,WUHU21623XXSP,2013-02-11 00:54:00,
2013-02-10 18:59:00,33.6,30.9,29.27,NNE,22,4.0,5.1,90,0.00,,,0.00,WUHU21623XXSP,2013-02-11 00:59:00,
2013-02-10 19:04:00,33.6,30.9,29.27,NNE,24,2.8,5.1,90,0.00,,,0.00,WUHU21623XXSP,2013-02-11 01:04:00,
2013-02-10 19:09:00,33.6,30.9,29.27,NNE,18,2.5,6.9,90,0.00,,,0.00,WUHU21623XXSP,2013-02-11 01:09:00,
2013-02-10 19:14:00,33.6,30.9,29.27,North,8,6.7,9.2,90,0.00,,,0.00,WUHU21623XXSP,2013-02-11 01:14:00,
2013-02-10 19:19:00,33.6,30.9,29.27,North,10,4.1,9.2,90,0.00,,,0.00,WUHU21623XXSP,2013-02-11 01:19:00,
2013-02-10 19:24:00,33.6,30.9,29.26,NNE,25,3.0,5.6,90,0.00,,,0.00,WUHU21623XXSP,2013-02-11 01:24:00,
2013-02-10 19:29:00,33.6,30.9,29.26,NNE,20,4.4,8.5,90,0.00,,,0.00,WUHU21623XXSP,2013-02-11 01:29:00,
2013-02-10 19:34:00,33.6,30.9,29.27,NNE,22,3.3,8.5,90,0.00,,,0.00,WUHU21623XXSP,2013-02-11 01:34:00,
2013-02-10 19:39:00,33.6,30.9,29.27,ENE,67,3.8,8.1,90,0.00,,,0.00,WUHU21623XXSP,2013-02-11 01:39:00,
2013-02-10 19:44:00,33.6,30.9,29.26,NNE,15,2.6,6.5,90,0.00,,,0.00,WUHU21623XXSP,2013-02-11 01:44:00,
2013-02-10 19:49:00,33.4,30.8,29.26,North,0,6.3,7.6,90,0.00,,,0.00,WUHU21623XXSP,2013-02-11 01:49:00,
2013-02-10 19:54:00,33.4,30.8,29.27,North,0,2.5,7.6,90,0.00,,,0.00,WUHU21623XXSP,2013-02-11 01:54:00,
2013-02-10 19:59:00,33.4,30.8,29.26,North,0,3.9,8.9,90,0.00,,,0.00,WUHU21623XXSP,2013-02-11 01:59:00,
2013-02-10 20:04:00,33.3,30.6,29.26,North,0,5.6,8.9,90,0.00,,,0.00,WUHU21623XXSP,2013-02-11 02:04:00,
2013-02-10 20:09:00,33.1,30.5,29.26,North,0,4.5,6.9,90,0.00,,,0.00,WUHU21623XXSP,2013-02-11 02:09:00,
2013-02-10 20:14:00,33.1,30.5,29.26,North,0,9.6,9.8,90,0.00,,,0.00,WUHU21623XXSP,2013-02-11 02:14:00,
2013-02-10 20:19:00,33.1,30.5,29.26,North,0,5.1,9.8,90,0.00,,,0.00,WUHU21623XXSP,2013-02-11 02:19:00,
2013-02-10 20:24:00,32.9,30.3,29.26,North,0,6.5,8.7,90,0.00,,,0.00,WUHU21623XXSP,2013-02-11 02:24:00,
2013-02-10 20:29:00,32.9,30.3,29.26,North,0,4.7,9.8,90,0.00,,,0.00,WUHU21623XXSP,2013-02-11 02:29:00,
2013-02-10 20:34:00,32.7,30.1,29.26,North,0,4.3,9.8,90,0.00,,,0.00,WUHU21623XXSP,2013-02-11 02:34:00,
2013-02-10 20:39:00,32.7,30.1,29.26,North,0,6.0,9.6,90,0.00,,,0.00,WUHU21623XXSP,2013-02-11 02:39:00,
2013-02-10 20:44:00,32.7,30.1,29.26,North,0,4.6,9.6,90,0.00,,,0.00,WUHU21623XXSP,2013-02-11 02:44:00,
2013-02-10 20:49:00,32.5,30.0,29.26,North,0,2.9,8.5,90,0.00,,,0.00,WUHU21623XXSP,2013-02-11 02:49:00,
2013-02-10 20:54:00,32.5,30.0,29.27,North,0,4.9,8.5,90,0.00,,,0.00,WUHU21623XXSP,2013-02-11 02:54:00,
2013-02-10 20:59:00,32.4,29.8,29.27,North,0,3.8,9.6,90,0.00,,,0.00,WUHU21623XXSP,2013-02-11 02:59:00,
2013-02-10 21:04:00,32.4,29.8,29.27,North,0,3.5,9.6,90,0.00,,,0.00,WUHU21623XXSP,2013-02-11 03:04:00,
2013-02-10 21:09:00,32.2,29.9,29.27,North,0,3.0,8.9,91,0.00,,,0.00,WUHU21623XXSP,2013-02-11 03:09:00,
2013-02-10 21:14:00,32.2,29.9,29.27,North,0,5.6,8.1,91,0.00,,,0.00,WUHU21623XXSP,2013-02-11 03:14:00,
2013-02-10 21:19:00,32.2,29.6,29.26,North,0,2.9,7.8,90,0.00,,,0.00,WUHU21623XXSP,2013-02-11 03:19:00,
2013-02-10 21:24:00,32.0,29.5,29.26,North,0,2.3,8.1,90,0.00,,,0.00,WUHU21623XXSP,2013-02-11 03:24:00,
2013-02-10 21:29:00,31.8,29.3,29.27,North,0,4.5,8.1,90,0.00,,,0.00,WUHU21623XXSP,2013-02-11 03:29:00,
2013-02-10 21:34:00,31.8,29.3,29.26,North,0,3.5,6.7,90,0.00,,,0.00,WUHU21623XXSP,2013-02-11 03:34:00,
2013-02-10 21:39:00,31.8,29.3,29.26,North,0,4.0,6.7,90,0.00,,,0.00,WUHU21623XXSP,2013-02-11 03:39:00,
2013-02-10 21:44:00,31.8,29.3,29.26,North,0,3.8,8.9,90,0.00,,,0.00,WUHU21623XXSP,2013-02-11 03:44:00,
2013-02-10 21:49:00,31.8,29.3,29.27,North,0,4.9,8.9,90,0.00,,,0.00,WUHU21623XXSP,2013-02-11 03:49:00,
2013-02-10 21:54:00,31.6,29.1,29.27,North,0,2.6,6.0,90,0.00,,,0.00,WUHU21623XXSP,2013-02-11 03:54:00,
2013-02-10 21:59:00,31.6,29.1,29.27,North,0,5.1,8.3,90,0.00,,,0.00,WUHU21623XXSP,2013-02-11 03:59:00,
2013-02-10 22:04:00,31.6,29.1,29.27,North,0,3.6,9.6,90,0.00,,,0.00,WUHU21623XXSP,2013-02-11 04:04:00,
2013-02-10 22:09:00,31.6,29.1,29.27,North,0,2.0,9.6,90,0.00,,,0.00,WUHU21623XXSP,2013-02-11 04:09:00,
2013-02-10 22:14:00,31.6,29.1,29.27,North,0,3.4,3.4,90,0.00,,,0.00,WUHU21623XXSP,2013-02-11 04:14:00,
2013-02-10 22:19:00,31.5,28.9,29.27,North,0,1.4,3.4,90,0.00,,,0.00,WUHU21623XXSP,2013-02-11 04:19:00,
2013-02-10 22:25:00,31.3,28.8,29.27,North,0,1.5,5.6,90,0.00,,,0.00,WUHU21623XXSP,2013-02-11 04:25:00,
2013-02-10 22:30:00,31.3,28.8,29.27,North,0,4.0,6.0,90,0.00,,,0.00,WUHU21623XXSP,2013-02-11 04:30:00,
2013-02-10 22:35:00,31.3,28.8,29.28,North,0,2.0,7.4,90,0.00,,,0.00,WUHU21623XXSP,2013-02-11 04:35:00,
2013-02-10 22:40:00,31.3,28.8,29.28,North,0,2.6,7.4,90,0.00,,,0.00,WUHU21623XXSP,2013-02-11 04:40:00,
2013-02-10 22:45:00,31.3,28.8,29.28,North,0,2.2,4.7,90,0.00,,,0.00,WUHU21623XXSP,2013-02-11 04:45:00,
2013-02-10 22:50:00,31.3,28.8,29.28,North,0,1.3,2.9,90,0.00,,,0.00,WUHU21623XXSP,2013-02-11 04:50:00,
2013-02-10 22:55:00,31.1,28.6,29.29,North,0,1.2,3.4,90,0.00,,,0.00,WUHU21623XXSP,2013-02-11 04:55:00,
2013-02-10 23:00:00,31.1,28.6,29.29,North,0,2.0,3.4,90,0.00,,,0.00,WUHU21623XXSP,2013-02-11 05:00:00,
2013-02-10 23:05:00,31.1,28.6,29.29,North,0,2.2,3.6,90,0.00,,,0.00,WUHU21623XXSP,2013-02-11 05:05:00,
2013-02-10 23:10:00,31.1,28.6,29.29,North,0,1.8,3.6,90,0.00,,,0.00,WUHU21623XXSP,2013-02-11 05:10:00,
2013-02-10 23:15:00,31.1,28.6,29.29,North,0,1.6,3.4,90,0.00,,,0.00,WUHU21623XXSP,2013-02-11 05:15:00,
2013-02-10 23:20:00,31.1,28.6,29.30,North,0,1.7,3.1,90,0.00,,,0.00,WUHU21623XXSP,2013-02-11 05:20:00,
2013-02-10 23:25:00,31.1,28.6,29.30,North,0,2.0,3.1,90,0.00,,,0.00,WUHU21623XXSP,2013-02-11 05:25:00,
2013-02-10 23:30:00,31.1,28.6,29.30,North,0,0.7,3.6,90,0.00,,,0.00,WUHU21623XXSP,2013-02-11 05:30:00,
2013-02-10 23:35:00,31.1,28.6,29.30,North,0,1.6,3.6,90,0.00,,,0.00,WUHU21623XXSP,2013-02-11 05:35:00,
2013-02-10 23:40:00,31.3,28.8,29.30,North,0,1.9,2.9,90,0.00,,,0.00,WUHU21623XXSP,2013-02-11 05:40:00,
2013-02-10 23:45:00,31.3,28.8,29.30,North,0,1.5,2.9,90,0.00,,,0.00,WUHU21623XXSP,2013-02-11 05:45:00,
2013-02-10 23:50:00,31.3,28.8,29.30,North,0,1.6,3.6,90,0.00,,,0.00,WUHU21623XXSP,2013-02-11 05:50:00,
2013-02-10 23:55:00,31.3,28.8,29.31,North,0,1.9,3.6,90,0.00,,,0.00,WUHU21623XXSP,2013-02-11 05:55:00,